Location: Village de las Huertas
(35.3014°N, 106.4095°W)
Time: 09:06:31
(UTC+00:00)

Meteor 2-1 Rocket - Pass Details

Date: 29 October 2020
Orbit: 830 x 906 km, 81.3° (Epoch: 04 December)

Event Time Altitude Azimuth Distance (km) Brightness Sun altitude
Rises 12:39:47 0° 352° (N) 3,442 7.2 -9.8°
Reaches altitude 10° 12:42:12 10° 353° (N) 2,513 6.5 -9.3°
Maximum altitude 12:47:56 86° 82° (E) 885 4.4 -8.2°
Drops below altitude 10° 12:53:45 10° 172° (S) 2,548 7.0 -7.0°
Sets 12:56:12 0° 172° (S) 3,493 7.7 -6.5°
